Time,TemperatureF,DewpointF,PressureIn,WindDirection,WindDirectionDegrees,WindSpeedMPH,WindSpeedGustMPH,Humidity,HourlyPrecipIn,Conditions,Clouds,dailyrainin,SoftwareType,DateUTC
2013-08-19 00:01:00,79.0,75.0,30.11,SSW,202,5.6,10.0,89,0.00,,,0.00,Rainwise IP-100,2013-08-19 04:01:00,
2013-08-19 00:03:00,79.0,75.0,30.11,South,180,5.4,10.0,89,0.00,,,0.00,Rainwise IP-100,2013-08-19 04:03:00,
2013-08-19 00:08:00,79.0,76.0,30.11,SSE,157,1.9,5.0,90,0.00,,,0.00,Rainwise IP-100,2013-08-19 04:08:00,
2013-08-19 00:13:00,79.0,76.0,30.10,SSE,157,4.0,4.0,90,0.00,,,0.00,Rainwise IP-100,2013-08-19 04:13:00,
2013-08-19 00:18:00,79.0,76.0,30.09,SE,135,3.0,5.0,90,0.00,,,0.00,Rainwise IP-100,2013-08-19 04:18:00,
2013-08-19 00:24:00,79.0,76.0,30.09,ESE,112,0.0,4.0,90,0.00,,,0.00,Rainwise IP-100,2013-08-19 04:24:00,
2013-08-19 00:29:00,79.1,76.0,30.09,ESE,112,0.0,3.0,90,0.00,,,0.00,Rainwise IP-100,2013-08-19 04:29:00,
2013-08-19 00:34:00,79.1,76.0,30.10,SSE,157,1.6,3.0,90,0.00,,,0.00,Rainwise IP-100,2013-08-19 04:34:00,
2013-08-19 00:39:00,79.2,76.0,30.09,SSE,157,5.1,5.1,90,0.00,,,0.00,Rainwise IP-100,2013-08-19 04:39:00,
2013-08-19 00:44:00,79.4,76.0,30.09,SSE,157,2.1,7.0,89,0.00,,,0.00,Rainwise IP-100,2013-08-19 04:44:00,
2013-08-19 00:49:00,79.7,76.0,30.09,SSE,157,2.6,5.0,89,0.00,,,0.00,Rainwise IP-100,2013-08-19 04:49:00,
2013-08-19 00:54:00,79.8,76.0,30.09,SSE,157,3.5,4.0,89,0.00,,,0.00,Rainwise IP-100,2013-08-19 04:54:00,
2013-08-19 01:00:00,79.9,76.0,30.09,ESE,112,0.0,3.0,89,0.00,,,0.00,Rainwise IP-100,2013-08-19 05:00:00,
2013-08-19 01:05:00,80.1,76.0,30.09,SSW,202,3.3,3.3,89,0.00,,,0.00,Rainwise IP-100,2013-08-19 05:05:00,
2013-08-19 01:10:00,80.3,76.0,30.09,SSE,157,1.2,3.0,89,0.00,,,0.00,Rainwise IP-100,2013-08-19 05:10:00,
2013-08-19 01:15:00,80.6,76.0,30.08,ESE,112,1.2,2.0,89,0.00,,,0.00,Rainwise IP-100,2013-08-19 05:15:00,
2013-08-19 01:20:00,80.6,76.0,30.09,South,180,1.9,4.0,89,0.00,,,0.00,Rainwise IP-100,2013-08-19 05:20:00,
2013-08-19 01:25:00,80.7,77.0,30.08,SSW,202,0.0,3.0,89,0.00,,,0.00,Rainwise IP-100,2013-08-19 05:25:00,
2013-08-19 01:30:00,80.7,77.0,30.09,SSW,202,0.0,0.0,89,0.00,,,0.00,Rainwise IP-100,2013-08-19 05:30:00,
2013-08-19 01:35:00,80.6,76.0,30.08,SSW,202,0.0,1.0,89,0.00,,,0.00,Rainwise IP-100,2013-08-19 05:35:00,
2013-08-19 01:41:00,80.5,76.0,30.08,SSW,202,0.0,0.0,89,0.00,,,0.00,Rainwise IP-100,2013-08-19 05:41:00,
2013-08-19 01:46:00,80.3,76.0,30.08,WNW,292,3.3,4.0,89,0.00,,,0.00,Rainwise IP-100,2013-08-19 05:46:00,
2013-08-19 01:51:00,79.9,76.0,30.08,NW,315,2.8,4.0,90,0.00,,,0.00,Rainwise IP-100,2013-08-19 05:51:00,
2013-08-19 01:56:00,79.7,76.0,30.07,NW,315,0.0,3.0,90,0.00,,,0.00,Rainwise IP-100,2013-08-19 05:56:00,
2013-08-19 02:01:00,79.6,76.0,30.07,NW,315,1.2,1.2,91,0.00,,,0.00,Rainwise IP-100,2013-08-19 06:01:00,
2013-08-19 02:06:00,79.6,76.0,30.07,NNW,337,0.0,3.0,91,0.00,,,0.00,Rainwise IP-100,2013-08-19 06:06:00,
2013-08-19 02:11:00,79.6,77.0,30.06,NNW,337,1.4,1.4,92,0.00,,,0.00,Rainwise IP-100,2013-08-19 06:11:00,
2013-08-19 02:17:00,79.7,77.0,30.06,NNW,337,0.0,2.0,92,0.00,,,0.00,Rainwise IP-100,2013-08-19 06:17:00,
2013-08-19 02:22:00,79.7,77.0,30.06,NNW,337,0.0,0.0,92,0.00,,,0.00,Rainwise IP-100,2013-08-19 06:22:00,
2013-08-19 02:27:00,79.6,77.0,30.06,WNW,292,1.9,3.0,92,0.00,,,0.00,Rainwise IP-100,2013-08-19 06:27:00,
2013-08-19 02:32:00,79.5,77.0,30.06,WSW,247,0.0,3.0,92,0.00,,,0.00,Rainwise IP-100,2013-08-19 06:32:00,
2013-08-19 02:37:00,79.6,77.0,30.06,WSW,247,0.0,2.0,92,0.00,,,0.00,Rainwise IP-100,2013-08-19 06:37:00,
2013-08-19 02:42:00,79.5,77.0,30.06,NNE,22,2.8,3.0,92,0.00,,,0.00,Rainwise IP-100,2013-08-19 06:42:00,
2013-08-19 02:47:00,80.0,77.0,30.05,NE,45,4.7,12.0,92,0.00,,,0.00,Rainwise IP-100,2013-08-19 06:47:00,
2013-08-19 02:52:00,80.9,78.0,30.05,East,90,5.6,7.0,91,0.00,,,0.00,Rainwise IP-100,2013-08-19 06:52:00,
2013-08-19 02:58:00,81.7,78.0,30.05,SE,135,5.6,9.0,90,0.00,,,0.00,Rainwise IP-100,2013-08-19 06:58:00,
2013-08-19 03:03:00,82.2,78.0,30.05,East,90,4.2,12.0,88,0.00,,,0.00,Rainwise IP-100,2013-08-19 07:03:00,
2013-08-19 03:08:00,82.3,78.0,30.05,East,90,4.9,11.0,87,0.00,,,0.00,Rainwise IP-100,2013-08-19 07:08:00,
2013-08-19 03:13:00,82.4,78.0,30.05,East,90,7.0,9.0,87,0.00,,,0.00,Rainwise IP-100,2013-08-19 07:13:00,
2013-08-19 03:18:00,82.4,78.0,30.05,ESE,112,2.3,9.0,87,0.00,,,0.00,Rainwise IP-100,2013-08-19 07:18:00,
2013-08-19 03:23:00,82.4,78.0,30.05,East,90,4.7,7.0,87,0.00,,,0.00,Rainwise IP-100,2013-08-19 07:23:00,
2013-08-19 03:28:00,82.4,78.0,30.05,East,90,2.3,7.0,87,0.00,,,0.00,Rainwise IP-100,2013-08-19 07:28:00,
2013-08-19 03:34:00,82.4,77.0,30.05,ENE,67,3.5,7.0,86,0.00,,,0.00,Rainwise IP-100,2013-08-19 07:34:00,
2013-08-19 03:39:00,82.6,77.0,30.05,ESE,112,6.5,8.0,86,0.00,,,0.00,Rainwise IP-100,2013-08-19 07:39:00,
2013-08-19 03:44:00,82.6,78.0,30.04,East,90,2.3,6.0,87,0.00,,,0.00,Rainwise IP-100,2013-08-19 07:44:00,
2013-08-19 03:49:00,82.6,78.0,30.05,ENE,67,5.1,9.0,87,0.00,,,0.00,Rainwise IP-100,2013-08-19 07:49:00,
2013-08-19 03:54:00,82.7,78.0,30.04,ESE,112,7.5,10.0,87,0.00,,,0.00,Rainwise IP-100,2013-08-19 07:54:00,
2013-08-19 03:59:00,82.7,78.0,30.04,ENE,67,5.6,10.0,86,0.00,,,0.00,Rainwise IP-100,2013-08-19 07:59:00,
2013-08-19 04:04:00,82.8,77.0,30.04,ENE,67,6.1,10.0,85,0.00,,,0.00,Rainwise IP-100,2013-08-19 08:04:00,
2013-08-19 04:09:00,82.8,77.0,30.04,ENE,67,7.2,10.0,85,0.00,,,0.00,Rainwise IP-100,2013-08-19 08:09:00,
2013-08-19 04:15:00,82.8,77.0,30.04,ENE,67,7.2,10.0,85,0.00,,,0.00,Rainwise IP-100,2013-08-19 08:15:00,
2013-08-19 04:20:00,82.8,77.0,30.04,ENE,67,2.8,12.0,84,0.00,,,0.00,Rainwise IP-100,2013-08-19 08:20:00,
2013-08-19 04:25:00,82.8,77.0,30.04,NE,45,11.0,12.0,84,0.00,,,0.00,Rainwise IP-100,2013-08-19 08:25:00,
2013-08-19 04:30:00,82.9,77.0,30.04,ENE,67,6.8,11.0,84,0.00,,,0.00,Rainwise IP-100,2013-08-19 08:30:00,
2013-08-19 04:35:00,82.9,77.0,30.04,ENE,67,4.0,12.0,84,0.00,,,0.00,Rainwise IP-100,2013-08-19 08:35:00,
2013-08-19 04:40:00,82.9,77.0,30.03,ENE,67,7.0,13.0,84,0.00,,,0.00,Rainwise IP-100,2013-08-19 08:40:00,
2013-08-19 04:45:00,83.0,77.0,30.03,ENE,67,5.6,12.0,84,0.00,,,0.00,Rainwise IP-100,2013-08-19 08:45:00,
2013-08-19 04:51:00,83.0,77.0,30.03,East,90,7.2,11.0,84,0.00,,,0.00,Rainwise IP-100,2013-08-19 08:51:00,
2013-08-19 04:56:00,82.8,77.0,30.03,East,90,5.4,13.0,84,0.00,,,0.00,Rainwise IP-100,2013-08-19 08:56:00,
2013-08-19 05:01:00,82.8,77.0,30.03,East,90,12.4,13.0,85,0.00,,,0.00,Rainwise IP-100,2013-08-19 09:01:00,
2013-08-19 05:06:00,82.7,77.0,30.02,ENE,67,4.9,12.0,84,0.00,,,0.00,Rainwise IP-100,2013-08-19 09:06:00,
2013-08-19 05:11:00,82.7,77.0,30.02,East,90,3.7,11.0,84,0.00,,,0.00,Rainwise IP-100,2013-08-19 09:11:00,
2013-08-19 05:16:00,82.7,77.0,30.03,ESE,112,5.8,13.0,84,0.00,,,0.00,Rainwise IP-100,2013-08-19 09:16:00,
2013-08-19 05:21:00,82.7,77.0,30.02,ENE,67,7.2,12.0,83,0.00,,,0.00,Rainwise IP-100,2013-08-19 09:21:00,
2013-08-19 05:26:00,82.7,77.0,30.03,ENE,67,2.8,10.0,83,0.00,,,0.00,Rainwise IP-100,2013-08-19 09:26:00,
2013-08-19 05:32:00,82.8,77.0,30.02,NE,45,7.7,13.0,84,0.00,,,0.00,Rainwise IP-100,2013-08-19 09:32:00,
2013-08-19 05:37:00,82.7,77.0,30.03,ESE,112,5.4,8.0,84,0.00,,,0.00,Rainwise IP-100,2013-08-19 09:37:00,
2013-08-19 05:42:00,82.7,77.0,30.03,ENE,67,11.2,13.0,83,0.00,,,0.00,Rainwise IP-100,2013-08-19 09:42:00,
2013-08-19 05:47:00,82.7,77.0,30.03,East,90,7.9,16.0,83,0.00,,,0.00,Rainwise IP-100,2013-08-19 09:47:00,
2013-08-19 05:52:00,82.7,77.0,30.03,SSE,157,2.6,11.0,83,0.00,,,0.00,Rainwise IP-100,2013-08-19 09:52:00,
2013-08-19 05:57:00,82.7,77.0,30.03,SE,135,1.2,12.0,83,0.00,,,0.00,Rainwise IP-100,2013-08-19 09:57:00,
2013-08-19 06:02:00,82.8,77.0,30.04,ESE,112,0.0,9.0,83,0.00,,,0.00,Rainwise IP-100,2013-08-19 10:02:00,
2013-08-19 06:08:00,82.8,77.0,30.03,ESE,112,2.8,10.0,83,0.00,,,0.00,Rainwise IP-100,2013-08-19 10:08:00,
2013-08-19 06:13:00,82.7,77.0,30.03,ENE,67,4.9,14.0,84,0.00,,,0.00,Rainwise IP-100,2013-08-19 10:13:00,
2013-08-19 06:18:00,82.7,77.0,30.03,ESE,112,4.2,12.0,84,0.00,,,0.00,Rainwise IP-100,2013-08-19 10:18:00,
2013-08-19 06:23:00,82.7,77.0,30.03,SSE,157,1.6,11.0,83,0.00,,,0.00,Rainwise IP-100,2013-08-19 10:23:00,
2013-08-19 06:28:00,82.8,77.0,30.03,ENE,67,7.9,16.0,83,0.00,,,0.00,Rainwise IP-100,2013-08-19 10:28:00,
2013-08-19 06:33:00,82.8,77.0,30.03,ENE,67,5.1,12.0,83,0.00,,,0.00,Rainwise IP-100,2013-08-19 10:33:00,
2013-08-19 06:38:00,82.9,77.0,30.03,ENE,67,10.3,11.0,83,0.00,,,0.00,Rainwise IP-100,2013-08-19 10:38:00,
2013-08-19 06:43:00,82.9,77.0,30.02,East,90,5.8,11.0,83,0.00,,,0.00,Rainwise IP-100,2013-08-19 10:43:00,
2013-08-19 06:49:00,82.8,77.0,30.03,ESE,112,5.6,14.0,83,0.00,,,0.00,Rainwise IP-100,2013-08-19 10:49:00,
2013-08-19 06:54:00,82.9,76.0,30.02,SSE,157,5.4,15.0,82,0.00,,,0.00,Rainwise IP-100,2013-08-19 10:54:00,
2013-08-19 06:59:00,82.9,76.0,30.03,East,90,12.1,15.0,82,0.00,,,0.00,Rainwise IP-100,2013-08-19 10:59:00,
2013-08-19 07:04:00,82.9,76.0,30.02,ESE,112,9.3,16.0,82,0.00,,,0.00,Rainwise IP-100,2013-08-19 11:04:00,
2013-08-19 07:09:00,82.9,76.0,30.02,ESE,112,5.8,13.0,82,0.00,,,0.00,Rainwise IP-100,2013-08-19 11:09:00,
2013-08-19 07:14:00,83.0,76.0,30.02,East,90,7.5,13.0,82,0.00,,,0.00,Rainwise IP-100,2013-08-19 11:14:00,
2013-08-19 07:19:00,83.0,76.0,30.02,East,90,2.6,15.0,82,0.00,,,0.00,Rainwise IP-100,2013-08-19 11:19:00,
2013-08-19 07:25:00,82.9,76.0,30.02,ESE,112,5.1,15.0,82,0.00,,,0.00,Rainwise IP-100,2013-08-19 11:25:00,
2013-08-19 07:30:00,83.1,76.0,30.03,East,90,2.6,14.0,82,0.00,,,0.00,Rainwise IP-100,2013-08-19 11:30:00,
2013-08-19 07:35:00,83.2,77.0,30.02,ESE,112,9.1,10.0,82,0.00,,,0.00,Rainwise IP-100,2013-08-19 11:35:00,
2013-08-19 07:40:00,83.3,77.0,30.02,SSE,157,5.8,12.0,82,0.00,,,0.00,Rainwise IP-100,2013-08-19 11:40:00,
2013-08-19 07:45:00,83.3,76.0,30.02,SSE,157,0.0,13.0,81,0.00,,,0.00,Rainwise IP-100,2013-08-19 11:45:00,
2013-08-19 07:50:00,83.5,76.0,30.03,SSE,157,4.9,9.0,80,0.00,,,0.00,Rainwise IP-100,2013-08-19 11:50:00,
2013-08-19 07:55:00,83.8,77.0,30.03,SSW,202,2.8,13.0,80,0.00,,,0.00,Rainwise IP-100,2013-08-19 11:55:00,
2013-08-19 08:00:00,83.9,76.0,30.02,SE,135,5.4,12.0,79,0.00,,,0.00,Rainwise IP-100,2013-08-19 12:00:00,
2013-08-19 08:06:00,84.0,76.0,30.03,SE,135,3.3,11.0,79,0.00,,,0.00,Rainwise IP-100,2013-08-19 12:06:00,
2013-08-19 08:11:00,84.0,76.0,30.02,ESE,112,4.2,11.0,79,0.00,,,0.00,Rainwise IP-100,2013-08-19 12:11:00,
2013-08-19 08:16:00,84.1,76.0,30.03,SSE,157,1.6,10.0,79,0.00,,,0.00,Rainwise IP-100,2013-08-19 12:16:00,
2013-08-19 08:21:00,84.3,76.0,30.03,East,90,4.2,9.0,78,0.00,,,0.00,Rainwise IP-100,2013-08-19 12:21:00,
2013-08-19 08:26:00,84.6,76.0,30.03,SSE,157,1.4,10.0,77,0.00,,,0.00,Rainwise IP-100,2013-08-19 12:26:00,
2013-08-19 08:31:00,84.9,76.0,30.03,ENE,67,4.2,12.0,77,0.00,,,0.00,Rainwise IP-100,2013-08-19 12:31:00,
2013-08-19 08:36:00,85.1,76.0,30.04,SSE,157,4.0,10.0,76,0.00,,,0.00,Rainwise IP-100,2013-08-19 12:36:00,
2013-08-19 08:42:00,85.3,76.0,30.03,ENE,67,4.2,10.0,76,0.00,,,0.00,Rainwise IP-100,2013-08-19 12:42:00,
2013-08-19 08:47:00,85.2,76.0,30.03,East,90,4.4,11.0,76,0.00,,,0.00,Rainwise IP-100,2013-08-19 12:47:00,
2013-08-19 08:52:00,85.3,76.0,30.04,ESE,112,7.0,12.0,76,0.00,,,0.00,Rainwise IP-100,2013-08-19 12:52:00,
2013-08-19 08:57:00,85.5,76.0,30.03,SSE,157,0.0,10.0,75,0.00,,,0.00,Rainwise IP-100,2013-08-19 12:57:00,
2013-08-19 09:02:00,85.7,76.0,30.03,East,90,2.3,11.0,74,0.00,,,0.00,Rainwise IP-100,2013-08-19 13:02:00,
2013-08-19 09:07:00,86.0,76.0,30.04,SSE,157,1.6,8.0,74,0.00,,,0.00,Rainwise IP-100,2013-08-19 13:07:00,
2013-08-19 09:12:00,86.1,76.0,30.04,East,90,3.5,11.0,74,0.00,,,0.00,Rainwise IP-100,2013-08-19 13:12:00,
2013-08-19 09:17:00,85.8,76.0,30.04,South,180,7.0,11.0,75,0.00,,,0.00,Rainwise IP-100,2013-08-19 13:17:00,
2013-08-19 09:23:00,85.9,77.0,30.04,East,90,0.0,15.0,75,0.00,,,0.00,Rainwise IP-100,2013-08-19 13:23:00,
2013-08-19 09:28:00,86.0,76.0,30.04,ESE,112,12.4,15.0,74,0.00,,,0.00,Rainwise IP-100,2013-08-19 13:28:00,
2013-08-19 09:33:00,85.7,76.0,30.04,SE,135,2.8,16.0,74,0.00,,,0.00,Rainwise IP-100,2013-08-19 13:33:00,
2013-08-19 09:38:00,85.6,76.0,30.04,SSE,157,6.5,12.0,75,0.00,,,0.00,Rainwise IP-100,2013-08-19 13:38:00,
2013-08-19 09:43:00,86.0,76.0,30.05,SE,135,5.6,12.0,74,0.00,,,0.00,Rainwise IP-100,2013-08-19 13:43:00,
2013-08-19 09:48:00,86.2,76.0,30.05,ESE,112,4.7,13.0,73,0.00,,,0.00,Rainwise IP-100,2013-08-19 13:48:00,
2013-08-19 09:53:00,86.6,76.0,30.05,SW,225,1.4,10.0,73,0.00,,,0.00,Rainwise IP-100,2013-08-19 13:53:00,
2013-08-19 09:59:00,86.8,76.0,30.05,SSW,202,1.2,12.0,73,0.00,,,0.00,Rainwise IP-100,2013-08-19 13:59:00,
2013-08-19 10:04:00,86.6,76.0,30.05,SE,135,4.4,12.0,73,0.00,,,0.00,Rainwise IP-100,2013-08-19 14:04:00,
2013-08-19 10:09:00,86.7,76.0,30.05,SE,135,6.3,9.0,72,0.00,,,0.00,Rainwise IP-100,2013-08-19 14:09:00,
2013-08-19 10:14:00,86.8,76.0,30.05,SE,135,6.5,9.0,71,0.00,,,0.00,Rainwise IP-100,2013-08-19 14:14:00,
2013-08-19 10:19:00,86.7,76.0,30.06,SSE,157,11.0,13.0,72,0.00,,,0.00,Rainwise IP-100,2013-08-19 14:19:00,
2013-08-19 10:24:00,86.9,76.0,30.06,ENE,67,2.6,12.0,72,0.00,,,0.00,Rainwise IP-100,2013-08-19 14:24:00,
2013-08-19 10:29:00,87.2,77.0,30.06,East,90,1.6,11.0,72,0.00,,,0.00,Rainwise IP-100,2013-08-19 14:29:00,
2013-08-19 10:34:00,87.2,77.0,30.06,South,180,5.1,11.0,72,0.00,,,0.00,Rainwise IP-100,2013-08-19 14:34:00,
2013-08-19 10:40:00,86.8,76.0,30.06,ESE,112,5.8,8.0,73,0.00,,,0.00,Rainwise IP-100,2013-08-19 14:40:00,
2013-08-19 10:45:00,86.6,77.0,30.06,ENE,67,2.6,9.0,75,0.00,,,0.00,Rainwise IP-100,2013-08-19 14:45:00,
2013-08-19 10:50:00,86.9,78.0,30.06,SSE,157,3.7,9.0,75,0.00,,,0.00,Rainwise IP-100,2013-08-19 14:50:00,
2013-08-19 10:55:00,87.4,78.0,30.07,NNE,22,0.0,7.0,74,0.00,,,0.00,Rainwise IP-100,2013-08-19 14:55:00,
2013-08-19 11:00:00,87.9,78.0,30.06,East,90,12.1,12.1,73,0.00,,,0.00,Rainwise IP-100,2013-08-19 15:00:00,
2013-08-19 11:05:00,87.6,77.0,30.07,East,90,5.8,14.0,71,0.00,,,0.00,Rainwise IP-100,2013-08-19 15:05:00,
2013-08-19 11:10:00,87.3,76.0,30.06,ESE,112,4.4,11.0,71,0.00,,,0.00,Rainwise IP-100,2013-08-19 15:10:00,
2013-08-19 11:16:00,87.4,76.0,30.06,ENE,67,4.2,10.0,71,0.00,,,0.00,Rainwise IP-100,2013-08-19 15:16:00,
2013-08-19 11:21:00,87.3,76.0,30.06,ENE,67,2.6,9.0,71,0.00,,,0.00,Rainwise IP-100,2013-08-19 15:21:00,
2013-08-19 11:26:00,87.4,77.0,30.06,East,90,5.4,9.0,72,0.00,,,0.00,Rainwise IP-100,2013-08-19 15:26:00,
2013-08-19 11:31:00,87.6,77.0,30.07,ESE,112,2.6,12.0,71,0.00,,,0.00,Rainwise IP-100,2013-08-19 15:31:00,
2013-08-19 11:36:00,87.3,76.0,30.07,ESE,112,4.2,11.0,71,0.00,,,0.00,Rainwise IP-100,2013-08-19 15:36:00,
2013-08-19 11:41:00,87.7,76.0,30.07,ENE,67,0.0,11.0,70,0.00,,,0.00,Rainwise IP-100,2013-08-19 15:41:00,
2013-08-19 11:47:00,88.1,77.0,30.07,East,90,5.4,12.0,70,0.00,,,0.00,Rainwise IP-100,2013-08-19 15:47:00,
2013-08-19 11:52:00,88.3,76.0,30.07,SSE,157,2.8,9.0,69,0.00,,,0.00,Rainwise IP-100,2013-08-19 15:52:00,
2013-08-19 11:57:00,88.7,77.0,30.07,SSE,157,7.9,9.0,69,0.00,,,0.00,Rainwise IP-100,2013-08-19 15:57:00,
2013-08-19 12:02:00,88.2,76.0,30.07,ESE,112,4.7,11.0,69,0.00,,,0.00,Rainwise IP-100,2013-08-19 16:02:00,
2013-08-19 12:07:00,87.9,76.0,30.07,SSE,157,7.7,10.0,69,0.00,,,0.00,Rainwise IP-100,2013-08-19 16:07:00,
2013-08-19 12:12:00,87.8,76.0,30.06,ESE,112,4.7,11.0,70,0.00,,,0.00,Rainwise IP-100,2013-08-19 16:12:00,
2013-08-19 12:17:00,87.6,76.0,30.06,SE,135,3.5,13.0,70,0.00,,,0.00,Rainwise IP-100,2013-08-19 16:17:00,
2013-08-19 12:23:00,87.5,76.0,30.06,ENE,67,10.0,12.0,70,0.00,,,0.00,Rainwise IP-100,2013-08-19 16:23:00,
2013-08-19 12:28:00,87.6,76.0,30.06,ESE,112,4.9,9.0,70,0.00,,,0.00,Rainwise IP-100,2013-08-19 16:28:00,
2013-08-19 12:33:00,88.0,77.0,30.06,SSE,157,5.8,11.0,70,0.00,,,0.00,Rainwise IP-100,2013-08-19 16:33:00,
2013-08-19 12:38:00,87.5,77.0,30.06,SSE,157,5.6,12.0,71,0.00,,,0.00,Rainwise IP-100,2013-08-19 16:38:00,
2013-08-19 12:43:00,87.4,76.0,30.06,SSE,157,5.1,11.0,71,0.00,,,0.00,Rainwise IP-100,2013-08-19 16:43:00,
2013-08-19 12:48:00,87.6,77.0,30.05,SSE,157,6.3,13.0,71,0.00,,,0.00,Rainwise IP-100,2013-08-19 16:48:00,
2013-08-19 12:53:00,87.0,76.0,30.05,SSE,157,4.2,14.0,70,0.00,,,0.00,Rainwise IP-100,2013-08-19 16:53:00,
2013-08-19 12:58:00,87.2,76.0,30.05,SSE,157,9.6,13.0,69,0.00,,,0.00,Rainwise IP-100,2013-08-19 16:58:00,
2013-08-19 13:04:00,87.4,76.0,30.05,ENE,67,0.0,13.0,69,0.00,,,0.00,Rainwise IP-100,2013-08-19 17:04:00,
2013-08-19 13:09:00,87.4,76.0,30.05,ESE,112,11.4,13.0,70,0.00,,,0.00,Rainwise IP-100,2013-08-19 17:09:00,
2013-08-19 13:14:00,87.3,76.0,30.05,SE,135,4.0,13.0,70,0.00,,,0.00,Rainwise IP-100,2013-08-19 17:14:00,
2013-08-19 13:19:00,87.2,76.0,30.05,SSE,157,3.3,9.0,70,0.00,,,0.00,Rainwise IP-100,2013-08-19 17:19:00,
2013-08-19 13:24:00,87.8,76.0,30.05,SSE,157,2.1,8.0,70,0.00,,,0.00,Rainwise IP-100,2013-08-19 17:24:00,
2013-08-19 13:29:00,88.2,77.0,30.05,SSE,157,1.4,9.0,70,0.00,,,0.00,Rainwise IP-100,2013-08-19 17:29:00,
2013-08-19 13:34:00,88.4,77.0,30.05,ENE,67,9.1,10.0,69,0.00,,,0.00,Rainwise IP-100,2013-08-19 17:34:00,
2013-08-19 13:40:00,88.5,77.0,30.04,ENE,67,3.5,13.0,69,0.00,,,0.00,Rainwise IP-100,2013-08-19 17:40:00,
2013-08-19 13:45:00,88.2,77.0,30.04,SSE,157,4.2,11.0,70,0.00,,,0.00,Rainwise IP-100,2013-08-19 17:45:00,
2013-08-19 13:50:00,87.8,76.0,30.05,SSE,157,3.0,12.0,70,0.00,,,0.00,Rainwise IP-100,2013-08-19 17:50:00,
2013-08-19 13:55:00,87.5,77.0,30.04,SSE,157,5.8,13.0,71,0.00,,,0.00,Rainwise IP-100,2013-08-19 17:55:00,
2013-08-19 14:00:00,87.2,77.0,30.04,SE,135,2.1,11.0,72,0.00,,,0.00,Rainwise IP-100,2013-08-19 18:00:00,
2013-08-19 14:05:00,87.5,77.0,30.05,ESE,112,2.1,9.0,72,0.00,,,0.00,Rainwise IP-100,2013-08-19 18:05:00,
2013-08-19 14:10:00,88.2,78.0,30.04,SSE,157,4.4,8.0,72,0.00,,,0.00,Rainwise IP-100,2013-08-19 18:10:00,
2013-08-19 14:15:00,88.0,77.0,30.04,ESE,112,5.4,13.0,71,0.00,,,0.00,Rainwise IP-100,2013-08-19 18:15:00,
2013-08-19 14:21:00,87.6,76.0,30.04,ESE,112,4.0,11.0,70,0.00,,,0.00,Rainwise IP-100,2013-08-19 18:21:00,
2013-08-19 14:26:00,87.5,76.0,30.04,ESE,112,6.5,13.0,70,0.00,,,0.00,Rainwise IP-100,2013-08-19 18:26:00,
2013-08-19 14:31:00,87.3,76.0,30.04,SE,135,4.7,10.0,70,0.00,,,0.00,Rainwise IP-100,2013-08-19 18:31:00,
2013-08-19 14:36:00,87.6,76.0,30.03,ESE,112,4.2,9.0,70,0.00,,,0.00,Rainwise IP-100,2013-08-19 18:36:00,
2013-08-19 14:41:00,87.7,77.0,30.03,SSE,157,2.8,12.0,71,0.00,,,0.00,Rainwise IP-100,2013-08-19 18:41:00,
2013-08-19 14:46:00,87.8,76.0,30.03,ESE,112,8.6,8.6,70,0.00,,,0.00,Rainwise IP-100,2013-08-19 18:46:00,
2013-08-19 14:51:00,88.1,76.0,30.03,ESE,112,0.0,9.0,69,0.00,,,0.00,Rainwise IP-100,2013-08-19 18:51:00,
2013-08-19 14:57:00,87.9,77.0,30.02,SSE,157,6.1,10.0,70,0.00,,,0.00,Rainwise IP-100,2013-08-19 18:57:00,
2013-08-19 15:02:00,87.0,76.0,30.03,ESE,112,1.9,14.0,71,0.00,,,0.00,Rainwise IP-100,2013-08-19 19:02:00,
2013-08-19 15:07:00,87.0,76.0,30.02,SE,135,5.6,12.0,70,0.00,,,0.00,Rainwise IP-100,2013-08-19 19:07:00,
2013-08-19 15:12:00,87.6,76.0,30.02,SSE,157,4.9,12.0,68,0.00,,,0.00,Rainwise IP-100,2013-08-19 19:12:00,
2013-08-19 15:17:00,87.6,76.0,30.02,SSE,157,4.7,11.0,69,0.00,,,0.00,Rainwise IP-100,2013-08-19 19:17:00,
2013-08-19 15:22:00,87.6,76.0,30.02,SSE,157,2.8,14.0,69,0.00,,,0.00,Rainwise IP-100,2013-08-19 19:22:00,
2013-08-19 15:27:00,87.6,76.0,30.02,ESE,112,5.4,12.0,70,0.00,,,0.00,Rainwise IP-100,2013-08-19 19:27:00,
2013-08-19 15:32:00,87.7,76.0,30.01,SE,135,5.1,10.0,70,0.00,,,0.00,Rainwise IP-100,2013-08-19 19:32:00,
2013-08-19 15:38:00,87.9,76.0,30.02,ENE,67,3.3,9.0,69,0.00,,,0.00,Rainwise IP-100,2013-08-19 19:38:00,
2013-08-19 15:43:00,87.7,76.0,30.01,SSE,157,5.6,7.0,70,0.00,,,0.00,Rainwise IP-100,2013-08-19 19:43:00,
2013-08-19 15:48:00,87.4,76.0,30.01,SSE,157,6.3,13.0,71,0.00,,,0.00,Rainwise IP-100,2013-08-19 19:48:00,
2013-08-19 15:53:00,87.1,76.0,30.01,SE,135,3.3,12.0,71,0.00,,,0.00,Rainwise IP-100,2013-08-19 19:53:00,
2013-08-19 15:58:00,87.2,76.0,30.01,ENE,67,2.6,14.0,69,0.00,,,0.00,Rainwise IP-100,2013-08-19 19:58:00,
2013-08-19 16:03:00,87.7,76.0,30.00,SSE,157,1.2,8.0,68,0.00,,,0.00,Rainwise IP-100,2013-08-19 20:03:00,
2013-08-19 16:08:00,88.2,76.0,30.01,ESE,112,3.3,10.0,68,0.00,,,0.00,Rainwise IP-100,2013-08-19 20:08:00,
2013-08-19 16:14:00,88.0,76.0,30.00,SSW,202,3.3,11.0,68,0.00,,,0.00,Rainwise IP-100,2013-08-19 20:14:00,
2013-08-19 16:19:00,87.7,76.0,30.01,SE,135,4.4,10.0,68,0.00,,,0.00,Rainwise IP-100,2013-08-19 20:19:00,
2013-08-19 16:24:00,87.9,76.0,30.01,ESE,112,6.1,8.0,67,0.00,,,0.00,Rainwise IP-100,2013-08-19 20:24:00,
2013-08-19 16:29:00,87.9,75.0,30.01,SSE,157,3.0,10.0,66,0.00,,,0.00,Rainwise IP-100,2013-08-19 20:29:00,
2013-08-19 16:34:00,87.8,75.0,30.00,SSE,157,3.0,9.0,66,0.00,,,0.00,Rainwise IP-100,2013-08-19 20:34:00,
2013-08-19 16:39:00,88.0,76.0,30.00,ESE,112,2.3,12.0,67,0.00,,,0.00,Rainwise IP-100,2013-08-19 20:39:00,
2013-08-19 16:44:00,88.6,76.0,30.00,NE,45,3.3,6.0,67,0.00,,,0.00,Rainwise IP-100,2013-08-19 20:44:00,
2013-08-19 16:49:00,88.6,76.0,30.00,ESE,112,5.8,9.0,67,0.00,,,0.00,Rainwise IP-100,2013-08-19 20:49:00,
2013-08-19 16:55:00,88.2,75.0,29.99,SE,135,5.1,9.0,66,0.00,,,0.00,Rainwise IP-100,2013-08-19 20:55:00,
2013-08-19 17:00:00,88.5,76.0,29.99,ENE,67,1.6,8.0,67,0.00,,,0.00,Rainwise IP-100,2013-08-19 21:00:00,
2013-08-19 17:05:00,88.8,76.0,30.00,SE,135,3.3,8.0,67,0.00,,,0.00,Rainwise IP-100,2013-08-19 21:05:00,
2013-08-19 17:10:00,88.8,76.0,30.00,ENE,67,4.7,7.0,67,0.00,,,0.00,Rainwise IP-100,2013-08-19 21:10:00,
2013-08-19 17:15:00,88.2,76.0,30.00,East,90,3.7,11.0,68,0.00,,,0.00,Rainwise IP-100,2013-08-19 21:15:00,
2013-08-19 17:20:00,87.5,76.0,30.00,SE,135,5.8,10.0,69,0.00,,,0.00,Rainwise IP-100,2013-08-19 21:20:00,
2013-08-19 17:25:00,86.8,76.0,30.00,East,90,3.7,7.0,71,0.00,,,0.00,Rainwise IP-100,2013-08-19 21:25:00,
2013-08-19 17:31:00,86.4,76.0,30.00,East,90,7.2,12.0,71,0.00,,,0.00,Rainwise IP-100,2013-08-19 21:31:00,
2013-08-19 17:36:00,85.9,76.0,29.99,East,90,5.1,11.0,72,0.00,,,0.00,Rainwise IP-100,2013-08-19 21:36:00,
2013-08-19 17:41:00,86.0,75.0,30.00,East,90,2.6,7.0,71,0.00,,,0.00,Rainwise IP-100,2013-08-19 21:41:00,
2013-08-19 17:46:00,86.3,75.0,30.00,ESE,112,2.8,9.0,71,0.00,,,0.00,Rainwise IP-100,2013-08-19 21:46:00,
2013-08-19 17:51:00,86.5,76.0,30.00,SSE,157,4.7,8.0,71,0.00,,,0.00,Rainwise IP-100,2013-08-19 21:51:00,
2013-08-19 17:56:00,86.7,76.0,30.00,SSE,157,4.9,9.0,70,0.00,,,0.00,Rainwise IP-100,2013-08-19 21:56:00,
2013-08-19 18:01:00,86.9,75.0,30.00,NNE,22,1.9,8.0,69,0.00,,,0.00,Rainwise IP-100,2013-08-19 22:01:00,
2013-08-19 18:06:00,87.0,75.0,29.99,ENE,67,9.1,9.1,69,0.00,,,0.00,Rainwise IP-100,2013-08-19 22:06:00,
2013-08-19 18:12:00,86.8,75.0,30.00,ESE,112,3.0,10.0,69,0.00,,,0.00,Rainwise IP-100,2013-08-19 22:12:00,
2013-08-19 18:17:00,86.8,76.0,30.00,SE,135,4.4,6.0,70,0.00,,,0.00,Rainwise IP-100,2013-08-19 22:17:00,
2013-08-19 18:22:00,87.1,76.0,30.00,East,90,5.6,7.0,71,0.00,,,0.00,Rainwise IP-100,2013-08-19 22:22:00,
2013-08-19 18:27:00,86.9,76.0,30.00,East,90,4.9,7.0,71,0.00,,,0.00,Rainwise IP-100,2013-08-19 22:27:00,
2013-08-19 18:32:00,86.6,75.0,30.00,ENE,67,3.3,8.0,70,0.00,,,0.00,Rainwise IP-100,2013-08-19 22:32:00,
2013-08-19 18:37:00,86.4,75.0,30.00,ENE,67,3.5,10.0,70,0.00,,,0.00,Rainwise IP-100,2013-08-19 22:37:00,
2013-08-19 18:42:00,86.5,75.0,30.00,ESE,112,1.4,6.0,70,0.00,,,0.00,Rainwise IP-100,2013-08-19 22:42:00,
2013-08-19 18:48:00,86.5,75.0,30.00,SSE,157,4.9,7.0,69,0.00,,,0.00,Rainwise IP-100,2013-08-19 22:48:00,
2013-08-19 18:53:00,86.5,75.0,30.01,SE,135,0.0,6.0,69,0.00,,,0.00,Rainwise IP-100,2013-08-19 22:53:00,
2013-08-19 18:58:00,86.4,75.0,30.01,East,90,5.6,7.0,70,0.00,,,0.00,Rainwise IP-100,2013-08-19 22:58:00,
2013-08-19 19:03:00,86.0,75.0,30.00,South,180,0.0,9.0,70,0.00,,,0.00,Rainwise IP-100,2013-08-19 23:03:00,
2013-08-19 19:08:00,85.8,74.0,30.00,East,90,4.4,7.0,70,0.00,,,0.00,Rainwise IP-100,2013-08-19 23:08:00,
2013-08-19 19:13:00,85.7,75.0,30.01,ENE,67,4.0,6.0,71,0.00,,,0.00,Rainwise IP-100,2013-08-19 23:13:00,
2013-08-19 19:18:00,85.5,74.0,30.00,ESE,112,1.6,7.0,71,0.00,,,0.00,Rainwise IP-100,2013-08-19 23:18:00,
2013-08-19 19:23:00,85.2,74.0,30.00,ESE,112,3.5,5.0,71,0.00,,,0.00,Rainwise IP-100,2013-08-19 23:23:00,
2013-08-19 19:29:00,85.1,74.0,30.00,ENE,67,6.8,8.0,72,0.00,,,0.00,Rainwise IP-100,2013-08-19 23:29:00,
2013-08-19 19:34:00,84.8,74.0,30.01,East,90,9.1,9.1,72,0.00,,,0.00,Rainwise IP-100,2013-08-19 23:34:00,
2013-08-19 19:39:00,84.6,75.0,30.01,ENE,67,5.4,10.0,73,0.00,,,0.00,Rainwise IP-100,2013-08-19 23:39:00,
2013-08-19 19:44:00,84.5,75.0,30.00,ESE,112,4.0,7.0,74,0.00,,,0.00,Rainwise IP-100,2013-08-19 23:44:00,
2013-08-19 19:49:00,84.4,75.0,30.01,ESE,112,3.0,7.0,75,0.00,,,0.00,Rainwise IP-100,2013-08-19 23:49:00,
2013-08-19 19:54:00,84.3,75.0,30.01,ESE,112,0.0,6.0,75,0.00,,,0.00,Rainwise IP-100,2013-08-19 23:54:00,
2013-08-19 19:59:00,84.2,75.0,30.01,East,90,4.2,7.0,75,0.00,,,0.00,Rainwise IP-100,2013-08-19 23:59:00,
2013-08-19 20:05:00,84.1,75.0,30.02,ESE,112,1.4,7.0,75,0.00,,,0.00,Rainwise IP-100,2013-08-20 00:05:00,
2013-08-19 20:10:00,84.1,75.0,30.01,ENE,67,3.0,5.0,75,0.00,,,0.00,Rainwise IP-100,2013-08-20 00:10:00,
2013-08-19 20:15:00,84.1,75.0,30.01,ENE,67,3.7,7.0,75,0.00,,,0.00,Rainwise IP-100,2013-08-20 00:15:00,
2013-08-19 20:20:00,84.1,76.0,30.02,East,90,2.8,5.0,76,0.00,,,0.00,Rainwise IP-100,2013-08-20 00:20:00,
2013-08-19 20:25:00,84.1,76.0,30.01,NE,45,6.8,7.0,76,0.00,,,0.00,Rainwise IP-100,2013-08-20 00:25:00,
2013-08-19 20:30:00,84.1,76.0,30.02,East,90,2.3,9.0,76,0.00,,,0.00,Rainwise IP-100,2013-08-20 00:30:00,
2013-08-19 20:35:00,84.1,76.0,30.02,ENE,67,3.7,8.0,76,0.00,,,0.00,Rainwise IP-100,2013-08-20 00:35:00,
2013-08-19 20:40:00,84.1,76.0,30.01,East,90,4.9,7.0,76,0.00,,,0.00,Rainwise IP-100,2013-08-20 00:40:00,
2013-08-19 20:46:00,84.0,76.0,30.02,East,90,6.5,8.0,77,0.00,,,0.00,Rainwise IP-100,2013-08-20 00:46:00,
2013-08-19 20:51:00,84.0,76.0,30.02,ESE,112,3.0,7.0,77,0.00,,,0.00,Rainwise IP-100,2013-08-20 00:51:00,
2013-08-19 20:56:00,83.8,76.0,30.02,East,90,2.3,6.0,77,0.00,,,0.00,Rainwise IP-100,2013-08-20 00:56:00,
2013-08-19 21:01:00,83.6,75.0,30.02,ESE,112,4.7,6.0,77,0.00,,,0.00,Rainwise IP-100,2013-08-20 01:01:00,
2013-08-19 21:06:00,83.1,75.0,30.02,East,90,3.5,9.0,78,0.00,,,0.00,Rainwise IP-100,2013-08-20 01:06:00,
2013-08-19 21:11:00,82.5,74.0,30.02,East,90,6.8,7.0,78,0.00,,,0.00,Rainwise IP-100,2013-08-20 01:11:00,
2013-08-19 21:16:00,82.3,74.0,30.02,East,90,5.4,9.0,77,0.00,,,0.00,Rainwise IP-100,2013-08-20 01:16:00,
2013-08-19 21:22:00,82.4,73.0,30.02,ESE,112,4.0,5.0,75,0.00,,,0.00,Rainwise IP-100,2013-08-20 01:22:00,
2013-08-19 21:27:00,82.8,73.0,30.03,ESE,112,4.2,7.0,73,0.00,,,0.00,Rainwise IP-100,2013-08-20 01:27:00,
2013-08-19 21:32:00,83.2,73.0,30.03,ESE,112,0.0,7.0,73,0.00,,,0.00,Rainwise IP-100,2013-08-20 01:32:00,
2013-08-19 21:37:00,83.3,73.0,30.03,East,90,4.4,5.0,73,0.00,,,0.00,Rainwise IP-100,2013-08-20 01:37:00,
2013-08-19 21:42:00,83.4,74.0,30.03,ESE,112,2.8,6.0,74,0.00,,,0.00,Rainwise IP-100,2013-08-20 01:42:00,
2013-08-19 21:47:00,83.4,74.0,30.03,ENE,67,1.9,5.0,75,0.00,,,0.00,Rainwise IP-100,2013-08-20 01:47:00,
2013-08-19 21:52:00,83.4,75.0,30.04,East,90,2.3,5.0,76,0.00,,,0.00,Rainwise IP-100,2013-08-20 01:52:00,
2013-08-19 21:57:00,83.3,75.0,30.04,East,90,3.3,5.0,77,0.00,,,0.00,Rainwise IP-100,2013-08-20 01:57:00,
2013-08-19 22:03:00,83.3,75.0,30.04,ENE,67,3.3,4.0,77,0.00,,,0.00,Rainwise IP-100,2013-08-20 02:03:00,
2013-08-19 22:08:00,83.2,76.0,30.04,ENE,67,3.3,4.0,78,0.00,,,0.00,Rainwise IP-100,2013-08-20 02:08:00,
2013-08-19 22:13:00,83.2,75.0,30.04,ENE,67,4.4,6.0,77,0.00,,,0.00,Rainwise IP-100,2013-08-20 02:13:00,
2013-08-19 22:18:00,83.2,75.0,30.04,ENE,67,1.9,5.0,77,0.00,,,0.00,Rainwise IP-100,2013-08-20 02:18:00,
2013-08-19 22:23:00,83.2,75.0,30.05,ENE,67,1.2,4.0,77,0.00,,,0.00,Rainwise IP-100,2013-08-20 02:23:00,
2013-08-19 22:28:00,83.2,76.0,30.05,ENE,67,5.1,5.1,78,0.00,,,0.00,Rainwise IP-100,2013-08-20 02:28:00,
2013-08-19 22:33:00,83.2,76.0,30.05,ESE,112,1.4,6.0,78,0.00,,,0.00,Rainwise IP-100,2013-08-20 02:33:00,
2013-08-19 22:39:00,83.1,75.0,30.06,East,90,1.9,3.0,78,0.00,,,0.00,Rainwise IP-100,2013-08-20 02:39:00,
2013-08-19 22:44:00,83.1,74.0,30.05,East,90,5.4,5.4,76,0.00,,,0.00,Rainwise IP-100,2013-08-20 02:44:00,
2013-08-19 22:49:00,83.4,75.0,30.05,ENE,67,1.9,7.0,76,0.00,,,0.00,Rainwise IP-100,2013-08-20 02:49:00,
2013-08-19 22:54:00,83.6,75.0,30.05,SE,135,0.0,7.0,76,0.00,,,0.00,Rainwise IP-100,2013-08-20 02:54:00,
2013-08-19 22:59:00,83.5,75.0,30.05,East,90,1.2,8.0,77,0.00,,,0.00,Rainwise IP-100,2013-08-20 02:59:00,
2013-08-19 23:04:00,83.5,75.0,30.05,ENE,67,2.8,6.0,77,0.00,,,0.00,Rainwise IP-100,2013-08-20 03:04:00,
2013-08-19 23:09:00,83.6,76.0,30.05,East,90,6.3,7.0,78,0.00,,,0.00,Rainwise IP-100,2013-08-20 03:09:00,
2013-08-19 23:14:00,83.6,76.0,30.05,ENE,67,7.2,11.0,78,0.00,,,0.00,Rainwise IP-100,2013-08-20 03:14:00,
2013-08-19 23:20:00,83.6,76.0,30.05,ESE,112,4.4,9.0,78,0.00,,,0.00,Rainwise IP-100,2013-08-20 03:20:00,
2013-08-19 23:25:00,83.6,76.0,30.05,NNE,22,3.7,6.0,79,0.00,,,0.00,Rainwise IP-100,2013-08-20 03:25:00,
2013-08-19 23:30:00,83.6,76.0,30.05,ENE,67,9.3,9.3,79,0.00,,,0.00,Rainwise IP-100,2013-08-20 03:30:00,
2013-08-19 23:35:00,83.6,76.0,30.05,ENE,67,4.9,12.0,79,0.00,,,0.00,Rainwise IP-100,2013-08-20 03:35:00,
2013-08-19 23:40:00,83.5,76.0,30.06,ESE,112,2.8,7.0,79,0.00,,,0.00,Rainwise IP-100,2013-08-20 03:40:00,
2013-08-19 23:45:00,83.6,76.0,30.06,ENE,67,6.8,9.0,79,0.00,,,0.00,Rainwise IP-100,2013-08-20 03:45:00,
2013-08-19 23:50:00,83.6,76.0,30.06,ENE,67,7.9,12.0,80,0.00,,,0.00,Rainwise IP-100,2013-08-20 03:50:00,
2013-08-19 23:56:00,83.5,76.0,30.05,ENE,67,6.1,11.0,80,0.00,,,0.00,Rainwise IP-100,2013-08-20 03:56:00,